Waarnemingen

Advertentie
Mijn weer
Le Touquet, Frankrijk (7003): temperatuur & dauwpunt: 19.03.2019 23:00:00 - 25.03.2019 23:00:00 (CET)Le Touquet, Frankrijk (7003): temperatuur 5cm: 19.03.2019 23:00:00 - 25.03.2019 23:00:00 (CET)Le Touquet, Frankrijk (7003): windsnelheid & windstoten: 19.03.2019 23:00:00 - 25.03.2019 23:00:00 (CET)Le Touquet, Frankrijk (7003): windrichting: 19.03.2019 23:00:00 - 25.03.2019 23:00:00 (CET)Le Touquet, Frankrijk (7003): luchtdruk: 19.03.2019 23:00:00 - 25.03.2019 23:00:00 (CET)Le Touquet, Frankrijk (7003): zicht: 19.03.2019 23:00:00 - 25.03.2019 23:00:00 (CET)Le Touquet, Frankrijk (7003): Zonneschijnduur: 19.03.2019 23:00:00 - 25.03.2019 23:00:00 (CET)Le Touquet, Frankrijk (7003): neerslag: 19.03.2019 23:00:00 - 25.03.2019 23:00:00 (CET)
Datum & Tijd tt [°C] td [°C] tt 5cm [°C] ff [km/u] ff [kn] fx [km/u] fx [kn] dd ppp [hPa] vv [km] sd [min] rr [mm]
25.03.2019 23:00:00 5,0 2,0 -0,4 6 3 14 8 NNO 1034,6 26 0 0,0
25.03.2019 22:00:00 5,8 3,1 2,1 7 4 18 10 N 1034,2 18 0 0,0
25.03.2019 21:00:00 6,2 3,2 1,2 10 5 16 9 NNO 1033,8 20 0 0,0
25.03.2019 20:00:00 6,0 2,6 2,5 10 5 28 15 N 1033,2 33 0 0,0
25.03.2019 19:00:00 8,4 2,8 7,1 20 11 38 20 N 1032,5 38 48 0,0
25.03.2019 18:00:00 9,8 1,9 9,6 25 14 39 21 N 1032,1 45 60 0,0
25.03.2019 17:00:00 10,9 3,4 9,6 17 9 36 19 N 1031,8 20 18 0,0
25.03.2019 16:00:00 9,7 1,6 10,5 23 12 45 24 N 1031,9 46 3 0,0
25.03.2019 15:00:00 9,5 1,9 10,6 22 12 43 23 N 1032,0 43 13 0,0
25.03.2019 14:00:00 10,2 2,3 10,6 25 13 44 24 N 1031,9 31 24 0,0
25.03.2019 13:00:00 10,0 2,1 10,3 26 14 51 28 N 1031,8 49 30 0,0
25.03.2019 12:00:00 9,6 2,9 11,1 23 12 41 22 N 1031,5 60 28 0,0
25.03.2019 11:00:00 8,9 2,7 10,0 27 15 45 24 N 1031,0 23 26 0,0
25.03.2019 10:00:00 8,4 2,4 10,4 29 16 47 25 N 1030,3 19 55 0,0
25.03.2019 09:00:00 7,8 2,3 8,6 34 18 48 26 N 1029,3 20 60 0,0
25.03.2019 08:00:00 7,3 2,4 6,4 26 14 45 24 NNW 1028,7 20 51 0,0
25.03.2019 07:00:00 7,2 2,9 5,8 28 15 49 26 NNW 1028,1 32 0 0,0
25.03.2019 06:00:00 7,6 2,5 5,6 33 18 53 29 NNW 1027,6 36 0 0,0
25.03.2019 05:00:00 8,2 3,4 5,9 28 15 47 26 NW 1027,3 37 0 0,0
25.03.2019 04:00:00 8,4 4,0 5,5 26 14 38 21 NW 1027,4 38 0 0,0
25.03.2019 03:00:00 8,2 4,0 4,7 22 12 37 20 NW 1027,5 43 0 0,0
25.03.2019 02:00:00 7,8 4,0 -1,4 19 11 29 16 NW 1027,7 46 0 0,0
25.03.2019 01:00:00 5,8 5,1 -1,4 5 3 9 5 NW 1027,7 13 0 0,0
25.03.2019 00:00:00 6,4 5,7 -0,2 3 1 8 5 WNW 1028,0 9 0 0,0
24.03.2019 23:00:00 6,4 4,7 3,1 5 3 15 8 ONO 1028,4 11 0 0,0
24.03.2019 22:00:00 8,1 5,6 3,1 6 3 15 8 W 1028,8 20 0 0,0
24.03.2019 21:00:00 7,6 3,8 2,6 4 2 9 5 WZW 1028,8 46 0 0,0
24.03.2019 20:00:00 7,7 3,5 3,9 5 3 16 8 W 1029,2 47 0 0,0
24.03.2019 19:00:00 8,4 3,8 5,9 10 5 18 10 W 1029,0 41 46 0,0
24.03.2019 18:00:00 10,1 -1,0 8,6 9 5 19 11 NW 1028,8 57 60 0,0
24.03.2019 17:00:00 10,5 -0,6 12,6 15 8 29 15 NW 1028,9 22 60 0,0
24.03.2019 16:00:00 10,3 1,4 10,8 23 12 32 18 NW 1029,2 22 60 0,0
24.03.2019 15:00:00 10,8 3,3 11,7 15 8 29 16 NW 1029,4 25 60 0,0
24.03.2019 14:00:00 11,1 3,1 17,6 16 9 31 17 N 1030,2 26 60 0,0
24.03.2019 13:00:00 10,5 5,5 11,8 24 13 42 23 N 1030,5 27 46 0,0
24.03.2019 12:00:00 10,4 3,9 13,3 11 6 23 12 N 1030,6 20 43 0,0
24.03.2019 11:00:00 10,0 3,9 16,4 11 6 19 10 N 1030,4 19 54 0,0
24.03.2019 10:00:00 9,2 4,2 13,7 8 4 20 11 NNO 1030,5 19 60 0,0
24.03.2019 09:00:00 8,0 4,4 9,0 13 7 19 10 NNW 1030,8 20 60 0,0
24.03.2019 08:00:00 6,4 3,9 2,8 7 4 11 6 NNW 1029,7 20 50 0,0
24.03.2019 07:00:00 5,7 2,9 2,8 9 5 18 10 ZO 1029,4 19 0 0,0
24.03.2019 06:00:00 6,7 3,8 5,0 13 7 36 19 O 1029,8 17 0 0,0
24.03.2019 05:00:00 7,5 4,1 7,1 24 13 40 21 NO 1029,7 19 0 0,0
24.03.2019 04:00:00 7,5 3,7 7,2 26 14 41 22 NO 1029,9 20 0 0,0
24.03.2019 03:00:00 7,7 3,7 7,3 23 12 41 22 NO 1030,1 24 0 0,0
24.03.2019 02:00:00 7,9 3,4 7,4 25 14 42 23 NO 1030,5 27 0 0,0
24.03.2019 01:00:00 7,9 3,5 7,4 14 8 26 14 O 1030,9 20 0 0,0
24.03.2019 00:00:00 8,0 3,8 7,6 16 9 26 14 ONO 1031,2 25 0 0,0
23.03.2019 23:00:00 8,4 4,4 7,8 6 4 19 10 O 1031,6 28 0 0,0
23.03.2019 22:00:00 8,6 5,0 8,1 14 7 27 15 ONO 1031,8 20 0 0,0
23.03.2019 21:00:00 8,9 4,5 8,3 13 7 27 15 ONO 1031,7 28 0 0,0
23.03.2019 20:00:00 9,0 5,0 8,5 13 7 27 15 NO 1031,7 29 0 0,0
23.03.2019 19:00:00 9,5 5,3 8,9 16 9 27 14 NO 1031,5 34 0 0,0
23.03.2019 18:00:00 9,9 5,7 9,8 18 10 31 17 NO 1031,5 32 0 0,0
23.03.2019 17:00:00 10,2 6,7 10,6 19 10 30 16 NO 1031,4 20 0 0,0
23.03.2019 16:00:00 10,6 8,0 11,2 19 11 29 16 NO 1031,5 7 0 0,0
23.03.2019 15:00:00 11,6 9,0 12,2 17 9 24 13 N 1031,4 7 0 0,0
23.03.2019 14:00:00 10,6 8,7 12,5 9 5 20 11 NW 1031,7 4,0 0 0,0
23.03.2019 13:00:00 11,1 9,2 13,9 9 5 18 10 NNW 1031,6 4,7 0 0,0
23.03.2019 12:00:00 10,6 9,2 11,6 0 0 8 4 N 1031,6 3,9 0 0,0
23.03.2019 11:00:00 10,0 9,1 11,0 4 2 11 6 NW 1031,7 3,6 0 0,0
23.03.2019 10:00:00 9,8 9,0 10,1 3 2 6 3 W 1031,3 3,5 0 0,0
23.03.2019 09:00:00 9,5 8,9 9,3 3 1 5 3 WZW 1031,0 2,4 0 0,0
23.03.2019 08:00:00 9,3 8,8 8,9 4 2 9 5 ZW 1030,7 2,2 0 0,0
23.03.2019 07:00:00 9,2 8,6 8,6 5 3 11 6 W 1030,2 2,3 0 0,0
23.03.2019 06:00:00 9,0 8,4 7,9 4 2 7 4 WZW 1029,9 2,7 0 0,0
23.03.2019 05:00:00 8,4 7,5 7,2 0 0 5 3 N 1029,6 6 0 0,0
23.03.2019 04:00:00 8,2 7,0 7,0 5 3 7 4 ZW 1029,4 10 0 0,0
23.03.2019 03:00:00 8,9 7,3 8,0 3 2 12 7 ZO 1029,5 9 0 0,0
23.03.2019 02:00:00 8,8 6,8 8,1 5 3 11 6 NW 1029,8 14 0 0,0
23.03.2019 01:00:00 8,6 7,5 8,2 5 3 10 6 WZW 1029,4 3,6 0 0,0
23.03.2019 00:00:00 8,7 7,6 8,2 4 2 9 5 WZW 1029,4 3,7 0 0,0
22.03.2019 23:00:00 8,5 7,3 8,1 3 2 12 7 ZW 1029,4 3,8 0 0,0
22.03.2019 22:00:00 8,5 7,1 7,9 5 3 14 7 W 1029,5 4,1 0 0,0
22.03.2019 21:00:00 8,3 6,6 7,7 5 3 16 8 W 1029,5 4,3 0 0,0
22.03.2019 20:00:00 8,0 6,3 7,7 6 3 17 9 WZW 1029,3 4,3 0 0,0
22.03.2019 19:00:00 8,1 6,2 8,0 7 4 15 8 WNW 1028,9 4,5 0 0,0
22.03.2019 18:00:00 8,5 7,0 9,2 6 3 14 7 WNW 1028,7 4,2 0 0,0
22.03.2019 17:00:00 8,5 6,8 10,1 5 3 12 7 W 1028,8 4,2 0 0,0
22.03.2019 16:00:00 8,2 6,5 10,7 9 5 17 9 WNW 1028,9 4,4 0 0,0
22.03.2019 15:00:00 8,5 6,8 11,8 9 5 14 8 WNW 1029,1 3,8 0 0,0
22.03.2019 14:00:00 8,9 7,2 12,2 7 4 12 7 NW 1029,4 3,6 0 0,0
22.03.2019 13:00:00 8,9 7,5 11,2 7 4 11 6 W 1030,0 3,4 0 0,0
22.03.2019 12:00:00 9,0 7,8 10,7 6 3 9 5 NW 1030,2 2,6 0 0,0
22.03.2019 11:00:00 8,7 7,6 10,0 4 2 8 4 ONO 1030,5 2,5 0 0,0
22.03.2019 10:00:00 8,2 7,4 9,2 5 3 8 4 ZO 1030,5 2,4 0 0,0
22.03.2019 09:00:00 7,8 7,5 8,0 3 1 5 3 Z 1030,7 2,7 0 0,0
22.03.2019 08:00:00 7,7 7,7 7,5 5 3 11 6 N 1030,8 1,1 0 0,0
22.03.2019 07:00:00 7,6 7,6 7,5 5 3 9 5 NNW 1030,6 0,7 0 0,0
22.03.2019 06:00:00 7,6 7,5 7,4 4 2 5 3 NW 1030,6 0,5 0 0,0
22.03.2019 05:00:00 7,5 7,4 7,0 0 0 9 5 N 1030,7 1,1 0 0,0
22.03.2019 04:00:00 7,2 7,1 6,7 5 3 17 9 ZZO 1030,9 0,5 0 0,0
22.03.2019 03:00:00 7,1 6,7 2,7 11 6 16 9 OZO 1031,2 4,0 0 0,0
22.03.2019 02:00:00 7,6 6,2 3,2 2 1 8 4 ZZW 1031,8 8 0 0,0
22.03.2019 01:00:00 8,5 7,0 7,3 3 2 6 3 Z 1032,2 12 0 0,0
22.03.2019 00:00:00 8,5 7,0 7,6 0 0 5 3 N 1032,9 12 0 0,0
21.03.2019 23:00:00 8,7 6,8 7,8 0 0 5 3 N 1032,9 14 0 0,0
21.03.2019 22:00:00 8,8 6,4 8,0 0 0 9 5 N 1033,4 17 0 0,0
21.03.2019 21:00:00 9,1 6,5 8,4 4 2 7 4 ZZO 1033,5 16 0 0,0
21.03.2019 20:00:00 9,2 6,6 8,7 5 3 11 6 OZO 1033,4 28 0 0,0
21.03.2019 19:00:00 9,4 6,7 9,0 3 2 8 4 O 1033,4 44 0 0,0
21.03.2019 18:00:00 9,7 6,8 10,1 5 3 14 7 NW 1033,3 42 0 0,0
21.03.2019 17:00:00 10,0 6,7 11,4 4 2 13 7 W 1033,5 46 0 0,0
21.03.2019 16:00:00 10,3 7,0 12,5 6 4 14 8 W 1033,7 52 0 0,0
21.03.2019 15:00:00 10,5 7,0 13,5 8 4 18 10 W 1034,2 53 0 0,0
21.03.2019 14:00:00 10,5 6,8 12,9 8 5 16 8 WZW 1034,8 39 0 0,0
21.03.2019 13:00:00 10,2 7,8 11,9 10 5 16 9 ZW 1035,2 60 0 0,0
21.03.2019 12:00:00 9,7 8,6 10,2 8 4 19 11 ZW 1035,5 19 0 0,0
21.03.2019 11:00:00 9,5 8,6 10,1 10 6 17 9 WZW 1035,7 19 0 0,0
21.03.2019 10:00:00 9,0 8,9 8,8 4 2 9 5 ZZW 1035,4 5 0 0,0
21.03.2019 09:00:00 7,9 7,9 7,1 3 1 6 3 Z 1035,2 2,7 0 0,0
21.03.2019 08:00:00 6,9 6,9 6,6 4 2 8 4 ZO 1035,0 2,8 0 0,0
21.03.2019 07:00:00 6,6 6,6 6,3 5 3 7 4 ZZO 1034,6 4,1 0 0,0
21.03.2019 06:00:00 6,2 6,2 6,1 4 2 9 5 ZO 1034,7 3,8 0 0,0
21.03.2019 05:00:00 6,0 6,0 6,0 6 3 10 5 ZO 1034,6 2,9 0 0,0
21.03.2019 04:00:00 5,9 5,9 5,8 6 3 10 6 ZO 1034,3 6 0 0,0
21.03.2019 03:00:00 5,7 5,7 5,8 8 4 11 6 ZO 1034,6 5 0 0,0
21.03.2019 02:00:00 5,8 5,8 5,8 8 5 11 6 ZO 1035,1 0,4 0 0,0
21.03.2019 01:00:00 6,3 6,3 6,1 4 2 9 5 ZZO 1035,2 0,3 0 0,0
21.03.2019 00:00:00 6,4 6,4 6,4 5 3 9 5 Z 1035,4 0,2 0 0,0
20.03.2019 23:00:00 7,0 7,0 6,9 4 2 7 4 Z 1035,4 0,2 0 0,0
20.03.2019 22:00:00 7,4 7,3 7,3 4 2 9 5 ZZW 1035,3 0,2 0 0,0
20.03.2019 21:00:00 7,6 7,5 6,8 3 2 7 4 Z 1035,3 1,1 0 0,0
20.03.2019 20:00:00 8,0 7,6 6,5 3 2 7 4 ZZW 1035,0 1,0 0 0,0
20.03.2019 19:00:00 8,6 7,8 6,5 4 2 15 8 W 1034,7 14 8 0,0
20.03.2019 18:00:00 9,0 8,2 9,8 9 5 17 9 W 1034,4 19 0 0,0
20.03.2019 17:00:00 9,4 8,0 11,3 10 6 19 10 W 1034,5 26 31 0,0
20.03.2019 16:00:00 11,3 8,7 12,7 12 7 24 13 WZW 1034,3 28 38 0,0
20.03.2019 15:00:00 10,7 8,6 12,2 14 7 22 12 ZW 1034,6 20 16 0,0
20.03.2019 14:00:00 9,6 8,2 11,0 13 7 24 13 WZW 1035,3 16 2 0,0
20.03.2019 13:00:00 10,2 8,3 11,7 13 7 24 13 WZW 1035,4 12 0 0,0
20.03.2019 12:00:00 9,6 7,7 11,2 14 8 25 13 ZW 1034,8 12 0 0,0
20.03.2019 11:00:00 10,0 8,4 11,6 17 9 28 15 ZW 1034,4 11 9 0,0
20.03.2019 10:00:00 9,6 8,5 9,5 14 8 24 13 ZW 1034,2 19 5 0,0
20.03.2019 09:00:00 8,6 8,5 6,5 5 3 13 7 Z 1034,1 10 0 0,0
20.03.2019 08:00:00 5,9 5,5 3,8 6 3 8 4 ZO 1033,5 9 0 0,0
20.03.2019 07:00:00 4,8 4,5 1,1 5 3 8 4 ZO 1033,0 8 0 0,0
20.03.2019 06:00:00 4,1 3,8 1,2 5 3 7 4 ZZO 1032,3 5 0 0,0
20.03.2019 05:00:00 5,1 4,7 2,0 3 2 10 5 ZZO 1032,2 4,7 0 0,0
20.03.2019 04:00:00 6,0 5,6 4,5 3 2 13 7 ZZO 1032,2 10 0 0,0
20.03.2019 03:00:00 8,5 7,0 5,9 8 4 14 8 WZW 1032,6 60 0 0,0
20.03.2019 02:00:00 6,1 6,0 4,2 3 2 8 5 ZO 1032,5 17 0 0,0
20.03.2019 01:00:00 5,1 5,0 1,6 3 2 8 4 ZZO 1032,4 60 0 0,0
20.03.2019 00:00:00 5,4 5,4 1,3 6 3 9 5 ZO 1032,2 3,5 0 0,0
19.03.2019 23:00:00 5,3 4,9 -0,1 5 3 9 5 ZZO 1031,6 3,7 0 0,0

tt = temperatuur
td = dauwpunt
tt 5cm = temperatuur 5cm
ff = windsnelheid
fx = windstoten
dd = windrichting
ppp = luchtdruk
vv = zicht
sd = Zonneschijnduur
rr = neerslag

Weerstations in de omgeving